Regional Weather Roundup
Issued by NWS

Home | Current Version | Previous Version | Text Only | Print | Product List | Glossary On
Versions: 1 2 3 4 5 6 7 8 9 10 11 12 13 14 15 16 17 18 19 20 21 22 23 24 25 26 27 28 29 30 31 32 33 34 35 36 37 38 39 40 41 42 43 44 45 46 47 48 49 50
000
ASMX46 KSGX 030911
RWRMX

MEXICAN WEATHER ROUNDUP
NATIONAL WEATHER SERVICE SAN DIEGO CA
200 AM PDT MON AUG 03 2015

BAJA CALIFORNIA

CITY           SKY/WX    TMP DP  RH WIND       PRES   REMARKS
ENSENADA NW      N/A     68  32  26 CALM      29.84F
TIJUANA        CLOUDY    68  61  77 CALM      29.89F

NORTHWESTERN MEXICO

CITY           SKY/WX    TMP DP  RH WIND       PRES   REMARKS

NORTHEASTERN MEXICO

CITY           SKY/WX    TMP DP  RH WIND       PRES   REMARKS
MONTERREY      CLEAR     73  66  78 CALM      29.87F

WESTERN MEXICO

CITY           SKY/WX    TMP DP  RH WIND       PRES   REMARKS
GUADALAJARA    CLOUDY    63  61  94 SE3       30.15S
MAZATLAN       TSTM      72  66  83 NE7       29.85F
PTO. VALLARTA  CLOUDY    75  73  94 E5        29.84F
ZACATECAS        N/A    N/A N/A N/A MISG        N/A

CENTRAL MEXICO

CITY           SKY/WX    TMP DP  RH WIND       PRES   REMARKS
MEXICO CITY    PTCLDY    61  54  77 S2        30.28F
QUERETARO      PTCLDY    57  54  88 CALM      30.25F
S. LUIS POTOSI MOCLDY    61  54  77 E5        30.20F
TOLUCA         FOG       48  46  93 CALM      30.35F VSB 1
VERACRUZ         N/A    N/A N/A N/A MISG        N/A

SOUTHERN MEXICO

CITY           SKY/WX    TMP DP  RH WIND       PRES   REMARKS
ACAPULCO       PTCLDY    81  75  83 N5        29.81F
OAXACA         MOCLDY    61  55  82 CALM      30.16F
TAPACHULA      PTCLDY    79  73  83 CALM      29.83S

YUCATAN PENINSULA

CITY           SKY/WX    TMP DP  RH WIND       PRES   REMARKS
CANCUN         PTCLDY    81  77  89 E5        29.91F
COZUMEL        PTCLDY    73  73 100 CALM      29.91F
MERIDA         CLEAR     77  73  88 SE8       29.89F

$$



USA.gov is the U.S. government's official web portal to all federal, state and local government web resources and services.